Regional Weather Roundup
Issued by NWS Upton, NY

Current Version | Previous Version | Graphics & Text | Print | Product List | Glossary Off
Versions: 1 2 3 4 5 6 7 8 9 10 11 12 13 14 15 16 17 18 19 20 21 22 23 24 25 26 27 28 29 30 31 32 33 34 35 36 37 38 39 40 41 42 43 44 45 46 47 48 49 50

000
ASUS41 KOKX 031008
RWROKX

REGIONAL WEATHER ROUNDUP
NATIONAL WEATHER SERVICE NEW YORK NY
500 AM EST SAT DEC 03 2016

NOTE: "FAIR" INDICATES FEW OR NO CLOUDS BELOW 12,000 FEET WITH NO
SIGNIFICANT WEATHER AND/OR OBSTRUCTIONS TO VISIBILITY.

NYZ071-072-176-178-NJZ106-104-031100-
NEW YORK CITY METRO AREA

CITY           SKY/WX    TMP DP  RH WIND       PRES   REMARKS
Central Park   PTCLDY    42  26  53 W8        29.97R
Wall St Helipt PTSUNNY   43  29  57 VRB3      29.96R
Bronx Bot Gard NOT AVBL
LaGuardia APRT PTCLDY    44  29  55 NW21G26   29.94R
Kennedy INTL   PTCLDY    43  26  51 NW22G30   29.96R
Breezy Point     N/A     41 N/A N/A W14G22      N/A
Newark/Liberty PTCLDY    42  29  59 NW22G32   29.96R
Teterboro      PTCLDY    42  26  53 W16G25    29.94R
$$

NYZ177-179-078>081-031100-
LONG ISLAND NEW YORK

CITY           SKY/WX    TMP DP  RH WIND       PRES   REMARKS
Jones Beach      N/A     43 N/A N/A NW22G30     N/A
Matinecock PT    N/A     43 N/A N/A W26         N/A
Farmingdale    PTCLDY    41  27  57 NW16G23   29.93
MacArthur/ISP  MOCLDY    41  28  60 NW14      29.91R
Shirley        CLOUDY    41  29  62 W12G20    29.91R
Westhampton    MOCLDY    41  27  57 NW12      29.90
Southampton    NOT AVBL
Bridgehampton  NOT AVBL
East Hampton   MOCLDY    41  29  62 NW10G20   29.87R
Montauk          N/A     43  32  65 NW15G25   29.87R
$$

NYZ052-065-067-031100-
HUDSON VALLEY

CITY           SKY/WX    TMP DP  RH WIND       PRES   REMARKS
White Plains   MOCLDY    40  27  59 W13G26    29.90R WCI  32
Newburgh       MOCLDY    37  30  75 W16       29.92R WCI  28
Montgomery     NOT AVBL
Poughkeepsie   CLOUDY    40  28  62 W7        29.90
Albany         CLOUDY    37  27  67 NW16G23   29.89R WCI  28
$$

NJZ001-105-106-008-010-013-015-019>022-104-031100-
NEW JERSEY

CITY           SKY/WX    TMP DP  RH WIND       PRES   REMARKS
Newark/Liberty PTCLDY    42  29  59 NW22G32   29.96R
Teterboro      PTCLDY    42  26  53 W16G25    29.94R
Caldwell       MOCLDY    41  27  57 NW16G24   29.97
Somerville     CLOUDY    42  30  62 W9        29.97
Linden         NOT AVBL
Sussex         CLOUDY    40  27  59 NW6       29.97
Andover          N/A     38  28  67 N13       29.97R WCI  30
Trenton        CLEAR     41  30  65 NW10G20   30.00R
Millville      NOT AVBL
Atlantic City  CLEAR     41  28  60 W13G22    30.01R
Wrightstown    CLOUDY    42  32  66 NW12      29.98R
Toms River     MOCLDY    41  31  67 NW16      29.99S
Belmar         CLEAR    N/A N/A N/A W15       29.97S
$$

PAZ047>061-062-071-031100-
EASTERN PENNSYLVANIA

CITY           SKY/WX    TMP DP  RH WIND       PRES   REMARKS
Philadelphia   NOT AVBL
Allentown      CLOUDY    41  30  65 NW13G20   30.02R
Scranton       NOT AVBL
$$

CTZ002-004>006-009-010-012-RIZ004-006-007-MAZ004-011-015-031100-
SOUTHERN NEW ENGLAND
 IN CT

CITY           SKY/WX    TMP DP  RH WIND       PRES   REMARKS
Bradley INTL   NOT AVBL
Hartford       MOCLDY    40  27  59 W8        29.87  WCI  34
Danbury        CLOUDY    39  27  62 W7G16     29.90  WCI  34
Wtrbury/Oxford CLOUDY    37  27  65 W5        29.88S WCI  34
Bridgeport     MOCLDY    41  28  60 W8        29.90R
Meriden        CLOUDY    41  29  62 NW6       29.88
New Haven      MOCLDY    42  30  62 W7        29.88
Chester        CLOUDY    39  30  70 NW10      29.86R WCI  32
Groton         CLEAR     44  26  49 NW17G28   29.85R
Wilimantic     NOT AVBL

 IN RI

CITY           SKY/WX    TMP DP  RH WIND       PRES   REMARKS
Providence     NOT AVBL
Block Island   PTCLDY    41  27  57 NW18G32   29.84
Westerly       PTCLDY    40  25  55 MISG      29.85
 IN MA

CITY           SKY/WX    TMP DP  RH WIND       PRES   REMARKS
Boston         CLOUDY    39  27  62 W12G23    29.78  WCI  32
Worcester      CLOUDY    34  24  67 W18       29.76  WCI  23
Westfield      CLOUDY    39  26  59 NW15G35   29.83  WCI  31
Provincetown   PTCLDY    42  30  62 NW23G37   29.75R
Nantucket      MOCLDY    42  28  57 NW21G30   29.77
$$

ANZ330-335-338-340-345-350-353-355-031100-
COASTAL MARINE OBSERVATIONS


STATION/POSITION TIME  SKY/WX   TEMP    WIND        PRES    VSBY  WAVE
                                AIR SEA DIR/SP/G                  HT/PER
                 (UTC)          (F)     (DEG/KT/KT) (MB)    (MI)  (FT/S)
NY HARB ENTRANCE 0950            45 54  300/ 23/ 27 1013.5          4/ 4
20 S FIRE ISLAND 0950            46 54  300/ 27/ 33 1012.5          7/ 6
GREAT SOUTH BAY  0915            42 45                N/A
23 SSW MONTAUK P 0950            46 56  290/ 25/ 29 1011.1          8/ 7
15 E BARNEGAT LI 0930               54                N/A           5/ 5
HUDSON CANYON    0850            48 59              1012.4         10/ 8
KINGS POINT      0948            43 48              1013.6
EXECUTION ROCKS  0945            43     280/ 16/ 21   N/A
CENTRAL LI SOUND 0915            44 51  320/ 17/ 21   N/A           4/ 5
EASTERN LI SOUND NOT AVBL
ROBBINS REEF     0948            43     300/ 25/ 29 1014.2
$$


>>>>>>>>>>>>>>>>>>>>>>>>>>>> KEY <<<<<<<<<<<<<<<<<<<<<<<<<<<
>                                                          <
>     SKY/WX - Sky Condition/Present Weather               <
>     TMP    - Temperature in Fahrenheit                   <
>     DP     - Dew Point in Fahrenheit                     <
>     RH     - Relative Humidity in Percent                <
>     WIND   - Direction (from) and Speed in MPH           <
>     PRES   - Mean Sea Level Pressure (inches of Hg)      <
>     WCI    - Wind Chill Index                            <
>     VSB    - VISIBILITY IN MILES                         <
>     HX     - HEAT INDEX                                  <
>     TC     - TEMPERATURE IN CELSIUS                      <
>     VRB    - VARIABLE WIND DIRECTION                     <
>                                                          <
>>>>>>>>>>>>>>>>>>>>>>>>>>>> KEY <<<<<<<<<<<<<<<<<<<<<<<<<<<



USA.gov is the U.S. government's official web portal to all federal, state and local government web resources and services.